This demonstration page uses our WeatherBlox Daily Observations layout. Learn more.

41.55636, -103.73856

Hourly Observations for December 7, 2015

Temp ( °F °C ) Dew Point ( °F °C ) Humidity (%) Winds ( mph kmh ) Pressure ( in mb ) Visibility ( mi km ) Precip ( " mm )
12:53 am 00:53 Clear 45 7 12 -11 27 27 WNW 14 22 30.09 1019 10 16.09344 0 0
1:53 am 01:53 Clear 46 8 14 -10 27 27 WNW 20 31 30.12 1020 10 16.09344 0 0
2:53 am 02:53 Clear 43 6 16 -9 34 34 WNW 18 30 30.15 1021 10 16.09344 0 0
3:53 am 03:53 Clear 43 6 16 -9 34 34 NW 18 30 30.15 1021 10 16.09344 0 0
4:53 am 04:53 Clear 39 4 18 -8 42 42 NW 12 19 30.18 1022 10 16.09344 0 0
5:53 am 05:53 Clear 30 -1 18 -8 59 59 NW 10 17 30.27 1025 10 16.09344 0 0
6:53 am 06:53 Clear 30 -1 18 -8 59 59 SW 6 9 30.27 1025 10 16.09344 0 0
7:53 am 07:53 Sunny 34 1 19 -7 56 56 SSE 3 6 30.24 1024 10 16.09344 0 0
8:53 am 08:53 Sunny 37 3 21 -6 52 52 E 3 6 30.21 1023 10 16.09344 0 0
9:53 am 09:53 Sunny 41 5 21 -6 45 45 E 6 9 30.12 1020 10 16.09344 0 0
10:53 am 10:53 Sunny 48 9 19 -7 32 32 SE 8 13 30.03 1017 10 16.09344 0 0
11:53 am 11:53 Sunny 48 9 21 -6 34 34 E 9 15 29.97 1015 10 16.09344 0 0
12:53 pm 12:53 Sunny 52 11 23 -5 32 32 E 9 15 29.91 1013 10 16.09344 0 0
1:53 pm 13:53 Sunny 54 12 23 -5 30 30 Calm 29.85 1011 10 16.09344 0 0
2:53 pm 14:53 Sunny 57 14 18 -8 21 21 SW 8 13 29.83 1010 10 16.09344 0 0
3:53 pm 15:53 Sunny 54 12 18 -8 24 24 S 8 13 29.83 1010 10 16.09344 0 0
6:53 pm 18:53 Clear 37 3 18 -8 45 45 E 7 11 29.91 1013 10 16.09344 0 0
7:53 pm 19:53 Clear 39 4 19 -7 45 45 E 7 11 29.88 1012 10 16.09344 0 0
8:53 pm 20:53 Clear 41 5 19 -7 42 42 E 5 7 29.83 1010 10 16.09344 0 0
9:53 pm 21:53 Mostly Cloudy 46 8 19 -7 34 34 WSW 9 15 29.74 1007 10 16.09344 0 0
10:53 pm 22:53 Partly Cloudy 48 9 21 -6 34 34 W 9 15 29.74 1007 10 16.09344 0 0
11:53 pm 23:53 Clear 57 14 27 -3 31 31 W 26 43 29.65 1004 10 16.09344 0 0

Powered by AerisWeather